Back to catalog

BEIBUWAN-1

AliveScienceSSO
NORAD 66055·PAYLOAD·🇨🇳 China
This satellite name has not been confirmed by official sources yet.

Launched Oct 19, 2025 from Jiuquan Satellite Launch Center

Loading…

Next Passes (next 24 hours)

TLE

FreshSource: Space-Track

Epoch: Sep 13, 2026, 18:17 UTC

1 66055U 25234C   26256.76240026  .00003464  00000-0  14209-3 0  9992
2 66055  97.4175 324.3295 0013872 200.6185 159.4495 15.24833351 50184

Track BEIBUWAN-1 in real time with AllMySat

Download on the App Store